FLOCK 2E'-20 (41782 NORAD) Tracking and Keplerian Element Data

This shows tracking and keplerian element data for the satellite.

Feedback or suggestion? Click here.




ElementValue
Catalog41782
NameFLOCK 2E'-20
Epoch Orbit11516
Epoch Day263.30838986
Epoch Year2018
RAAN187.4722
Inclination51.6137
Eccentricity0.0007059
Argument of Perigee217.6983
Mean Anonmoly142.3849
Mean Motion16.22178658
Decay Rate0.01604935
L11 41782U 98067KQ 18263.30838986 .01604935 11897-4 67539-3 0 9998
L22 41782 51.6137 187.4722 0007059 217.6983 142.3849 16.22178658115166

Live tracking and technical data element details for FLOCK 2E'-20 (NORAD 41782). FLOCK 2E'-20 can be tracked NOW for your location showing map with azimuth and elevation plus other details from your city location.

Track the satellite on the map from your city or location and see movement details for azimuth, elevation, latitude, longitude, range, height, and movement on the map or in text.







IsCatalogInMostPopularTable: catalog: 41782, numindb: 123
Update: records affected: 1



GetName: 41782 FLOCK 2E'-20

Hit Count: updated at: Mon, 12 Nov 2018 17:31:38 GMT